* Astronomy

Members Login
Username 
 
Password 
    Remember Me  
Post Info TOPIC: Comet P/2009 T2 (La Sagra)


L

Posts: 131433
Date:
RE: Comet P/2009 T2 (La Sagra)
Permalink  
 


Comet P/2009 T2 (La Sagra) at magnitude 15.4 will pass 0.41° from the galaxy NGC 1042 (magnitude 10.9) at 00:00 UT, 17th January, 2010.

__________________


L

Posts: 131433
Date:
Permalink  
 

Comet P/2009 T2 (La Sagra) Perihelion

__________________


L

Posts: 131433
Date:
Permalink  
 

Orbital elements:
P/2009 T2 (La Sagra)
Epoch 2010 Jan. 4.0 TT = JDT 2455200.5
T 2010 Jan. 12.84694 TT MPC
q 1.7548249 (2000.0) P Q
n 0.04703473 Peri. 215.47251 +0.35822435 -0.89164663
a 7.6007592 Node 215.98515 +0.92779829 +0.37308068
e 0.7691250 Incl. 28.10963 +0.10423844 -0.25647046
P 20.95

MPEC 2009 - W142


__________________


L

Posts: 131433
Date:
Permalink  
 

Orbital elements:
P/2009 T2 (La Sagra)
T 2010 Jan. 12.8417 TT MPC
q 1.754816 (2000.0) P Q
n 0.0470456 Peri. 215.4699 +0.3582594 -0.8916351
a 7.599583 Node 215.9853 +0.9277823 +0.3731204
e 0.769091 Incl. 28.1086 +0.1042603 -0.2564527
P 21.0
From 596 observations 2009 Sept. 18-Nov. 23.

MPEC 2009 - W96



__________________


L

Posts: 131433
Date:
Permalink  
 

Orbital elements:
P/2009 T2 (La Sagra)
T 2010 Jan. 12.8355 TT MPC
q 1.754749 (2000.0) P Q
n 0.0471012 Peri. 215.4675 +0.3582785 -0.8916370
a 7.593610 Node 215.9859 +0.9277693 +0.3731524
e 0.768918 Incl. 28.1048 +0.1043099 -0.2563995
P 20.9
From 529 observations 2009 Sept. 18-Nov. 17.
MPEC 2009 - W20

__________________


L

Posts: 131433
Date:
Permalink  
 

Orbital elements:
P/2009 T2 (La Sagra)
T 2010 Jan. 12.8332 TT MPC
q 1.754726 (2000.0) P Q
n 0.0471198 Peri. 215.4666 +0.3582850 -0.8916377
a 7.591612 Node 215.9861 +0.9277649 +0.3731635
e 0.768860 Incl. 28.1035 +0.1043273 -0.2563809
P 20.9
From 468 observations 2009 Sept. 18-Nov. 12.

MPEC 2009 - V56


__________________


L

Posts: 131433
Date:
Permalink  
 

Orbital elements:
P/2009 T2 (La Sagra)
T 2010 Jan. 12.8280 TT MPC
q 1.754701 (2000.0) P Q
n 0.0471555 Peri. 215.4639 +0.3583146 -0.8916318
a 7.587774 Node 215.9864 +0.9277494 +0.3732017
e 0.768746 Incl. 28.1011 +0.1043631 -0.2563460
P 20.9
From 362 observations 2009 Sept. 18-Nov. 6.

MPEC 2009 - V16


__________________


L

Posts: 131433
Date:
Permalink  
 

Orbital elements:
P/2009 T2 (La Sagra)
T 2010 Jan. 12.8222 TT MPC
q 1.754697 (2000.0) P Q
n 0.0471953 Peri. 215.4601 +0.3583614 -0.8916186
a 7.583510 Node 215.9868 +0.9277268 +0.3732579
e 0.768617 Incl. 28.0988 +0.1044035 -0.2563099
P 20.9
From 324 observations 2009 Sept. 18-Oct. 29.

MPEC 2009 - U133


__________________


L

Posts: 131433
Date:
Permalink  
 

Orbital elements:
P/2009 T2 (La Sagra)
T 2010 Jan. 12.8216 TT MPC
q 1.754716 (2000.0) P Q
n 0.0471906 Peri. 215.4594 +0.3583732 -0.8916131
a 7.584013 Node 215.9868 +0.9277222 +0.3732692
e 0.768630 Incl. 28.0991 +0.1044035 -0.2563127
P 20.9
From 226 observations 2009 Sept. 18-Oct. 24.

MPEC 2009 - U82


__________________


L

Posts: 131433
Date:
Permalink  
 

Orbital elements:
P/2009 T2 (La Sagra)
T 2010 Jan. 12.8264 TT MPC
q 1.754661 (2000.0) P Q
n 0.0471750 Peri. 215.4640 +0.3583097 -0.8916370
a 7.585687 Node 215.9865 +0.9277500 +0.3732003
e 0.768688 Incl. 28.0999 +0.1043749 -0.2563300
P 20.9
From 150 observations 2009 Sept. 18-Oct. 19.

MPEC 2009 - U46


__________________
1 2  >  Last»  | Page of 2  sorted by
Quick Reply

Please log in to post quick replies.



Create your own FREE Forum
Report Abuse
Powered by ActiveBoard